FW6305 Weather Reports


Display with metric or nautical units.
time (UTC)temp
F
wind
direction
speed
MPH
gust
MPH
rain 1hr
in
rain 24hr
in
rain mn
in
humidity
%
barometer
mb
20260506165035 63 269 0.0 3.0 0.00 0.00 0.00 71 1020.2
20260506164545 63 0 1.0 5.0 0.00 0.00 0.00 71 1020.3
20260506164034 63 288 1.0 5.0 0.00 0.00 0.00 70 1020.2
20260506163533 62 221 1.0 5.0 0.00 0.00 0.00 72 1020.3
20260506163044 62 221 1.0 6.0 0.00 0.00 0.00 71 1020.3
20260506162532 62 221 1.0 6.0 0.00 0.00 0.00 72 1020.3
20260506162033 62 207 2.0 5.0 0.00 0.00 0.00 72 1020.3
20260506161544 61 205 1.0 5.0 0.00 0.00 0.00 73 1020.3
20260506161031 61 205 1.0 5.0 0.00 0.00 0.00 73 1020.3
20260506160531 61 206 1.0 5.0 0.00 0.00 0.00 73 1020.3
20260506160044 61 207 1.0 6.0 0.00 0.00 0.00 73 1020.2
20260506155531 60 204 2.0 6.0 0.00 0.00 0.00 74 1020.3
20260506155031 60 198 2.0 5.0 0.00 0.00 0.00 74 1020.3
20260506154556 60 192 2.0 6.0 0.00 0.00 0.00 75 1020.3
20260506154032 60 238 2.0 6.0 0.00 0.00 0.00 75 1020.4
20260506153531 60 188 1.0 6.0 0.00 0.00 0.00 75 1020.4
20260506153047 60 227 1.0 6.0 0.00 0.00 0.00 75 1020.3
20260506152532 59 172 1.0 4.0 0.00 0.00 0.00 76 1020.4
20260506152031 59 0 0.0 2.0 0.00 0.00 0.00 76 1020.4
20260506151545 59 0 0.0 1.0 0.00 0.00 0.00 77 1020.3
20260506151032 59 0 0.0 1.0 0.00 0.00 0.00 76 1020.3
20260506150532 59 0 0.0 1.0 0.00 0.00 0.00 78 1020.4
20260506150050 59 0 0.0 1.0 0.00 0.00 0.00 78 1020.2
20260506145533 58 0 0.0 1.0 0.00 0.00 0.00 79 1020.2
20260506145032 58 0 0.0 4.0 0.00 0.00 0.00 79 1020.1
20260506144549 58 0 0.0 4.0 0.00 0.00 0.00 78 1020.1
20260506144033 57 257 1.0 4.0 0.00 0.00 0.00 78 1020.2
20260506143533 57 257 0.0 1.0 0.00 0.00 0.00 79 1020.2
20260506143041 57 0 0.0 3.0 0.00 0.00 0.00 78 1020.1
20260506142531 57 0 0.0 3.0 0.00 0.00 0.00 79 1020.2
20260506142031 57 257 0.0 3.0 0.00 0.00 0.00 79 1020.1
20260506141544 57 0 0.0 3.0 0.00 0.00 0.00 79 1020.0
20260506141034 57 0 0.0 3.0 0.00 0.00 0.00 79 1019.9
20260506140534 56 257 1.0 4.0 0.00 0.00 0.00 79 1019.9
20260506140056 56 257 0.0 4.0 0.00 0.00 0.00 79 1019.8
20260506135531 56 257 0.0 2.0 0.00 0.00 0.00 80 1019.8
20260506135031 56 257 0.0 2.0 0.00 0.00 0.00 80 1019.7
20260506134544 56 0 0.0 3.0 0.00 0.00 0.00 80 1019.7
20260506134031 56 0 0.0 3.0 0.00 0.00 0.00 80 1019.7
20260506133531 56 257 1.0 4.0 0.00 0.00 0.00 80 1019.7
20260506133047 56 257 1.0 4.0 0.00 0.00 0.00 80 1019.7
20260506132534 56 0 1.0 4.0 0.00 0.00 0.00 80 1019.6
20260506132031 56 255 1.0 4.0 0.00 0.00 0.00 79 1019.7
20260506131546 56 255 1.0 4.0 0.00 0.00 0.00 79 1019.7
20260506131031 56 254 1.0 4.0 0.00 0.00 0.00 80 1019.6
20260506130531 56 0 0.0 4.0 0.00 0.00 0.00 79 1019.6
20260506130045 56 254 1.0 5.0 0.00 0.00 0.00 80 1019.6
20260506125531 56 254 0.0 5.0 0.00 0.00 0.00 79 1019.6
20260506125031 56 254 1.0 3.0 0.00 0.00 0.00 79 1019.5
20260506124545 56 256 0.0 3.0 0.00 0.00 0.00 79 1019.4
20260506124031 56 256 0.0 3.0 0.00 0.00 0.00 79 1019.4
20260506123532 56 256 0.0 3.0 0.00 0.00 0.00 79 1019.4
20260506123044 56 256 1.0 5.0 0.00 0.00 0.00 79 1019.4
20260506122532 56 0 1.0 5.0 0.00 0.00 0.00 79 1019.4
20260506122031 56 245 1.0 3.0 0.00 0.00 0.00 79 1019.4
20260506121541 56 245 1.0 3.0 0.00 0.00 0.00 79 1019.5
20260506121033 56 0 0.0 4.0 0.00 0.00 0.00 79 1019.4
20260506120535 56 245 1.0 4.0 0.00 0.00 0.00 79 1019.5
20260506120054 56 245 0.0 4.0 0.00 0.00 0.00 79 1019.4
20260506115532 56 0 0.0 4.0 0.00 0.00 0.00 79 1019.4
20260506115031 56 242 1.0 2.0 0.00 0.00 0.00 80 1019.3
20260506114553 56 0 0.0 5.0 0.00 0.00 0.00 80 1019.3
20260506114031 56 0 1.0 7.0 0.00 0.00 0.00 80 1019.2
20260506113532 56 241 1.0 8.0 0.00 0.00 0.00 80 1019.2
20260506113049 56 194 3.0 8.0 0.00 0.00 0.00 79 1018.9
20260506112535 56 265 1.0 6.0 0.00 0.00 0.00 80 1019.0
20260506112031 56 265 1.0 6.0 0.00 0.00 0.00 80 1018.9
20260506111542 56 248 2.0 4.0 0.00 0.00 0.00 79 1018.9
20260506111033 56 246 0.0 5.0 0.00 0.00 0.00 79 1018.8
20260506110533 56 246 2.0 5.0 0.00 0.00 0.00 79 1018.8
20260506110040 56 245 2.0 4.0 0.00 0.00 0.00 79 1018.8
20260506105530 56 244 0.0 8.0 0.00 0.00 0.00 79 1018.8
20260506105031 56 244 1.0 8.0 0.00 0.00 0.00 79 1018.8
20260506104554 56 245 0.0 5.0 0.00 0.00 0.00 79 1018.8
20260506104032 56 245 0.0 5.0 0.00 0.00 0.00 79 1018.7
20260506103531 56 245 2.0 5.0 0.00 0.00 0.00 79 1018.8
20260506103043 56 0 1.0 5.0 0.00 0.00 0.00 79 1018.8
20260506102534 56 244 2.0 5.0 0.00 0.00 0.00 79 1018.8
20260506102031 56 246 1.0 5.0 0.00 0.00 0.00 79 1018.7
20260506101549 56 246 1.0 7.0 0.00 0.00 0.00 79 1018.7
20260506101032 56 246 1.0 7.0 0.00 0.00 0.00 79 1018.7
20260506100531 56 246 1.0 5.0 0.00 0.00 0.00 79 1018.6
20260506100043 56 246 2.0 5.0 0.00 0.00 0.00 79 1018.7
20260506095535 56 246 1.0 5.0 0.00 0.01 0.00 79 1018.7
20260506095033 56 246 2.0 7.0 0.00 0.01 0.00 79 1018.7
20260506094543 56 246 1.0 7.0 0.00 0.01 0.00 79 1018.7
20260506094031 56 243 2.0 5.0 0.00 0.01 0.00 79 1018.6
20260506093531 56 247 2.0 7.0 0.00 0.01 0.00 79 1018.6
20260506093045 56 247 2.0 7.0 0.00 0.01 0.00 79 1018.5
20260506092532 56 247 3.0 7.0 0.00 0.01 0.00 79 1018.6
20260506092031 56 243 2.0 6.0 0.00 0.01 0.00 79 1018.6
20260506091544 56 244 1.0 7.0 0.00 0.01 0.00 80 1018.6
20260506091031 56 242 2.0 8.0 0.00 0.01 0.00 79 1018.6
20260506090533 56 260 1.0 8.0 0.00 0.01 0.00 80 1018.6
20260506090043 56 278 2.0 7.0 0.00 0.01 0.00 79 1018.7
20260506085531 56 281 2.0 7.0 0.00 0.03 0.00 79 1018.7
20260506085031 56 282 1.0 6.0 0.00 0.03 0.00 80 1018.7
20260506084546 56 282 2.0 7.0 0.00 0.03 0.00 80 1018.7
20260506084031 56 282 3.0 7.0 0.00 0.03 0.00 80 1018.6
20260506083532 56 265 2.0 6.0 0.00 0.03 0.00 80 1018.6
20260506083050 56 0 1.0 4.0 0.00 0.03 0.00 80 1018.7
20260506082531 56 264 0.0 9.0 0.00 0.03 0.00 80 1018.6
20260506082032 56 264 1.0 9.0 0.00 0.03 0.00 80 1018.6
20260506081545 56 265 1.0 8.0 0.00 0.03 0.00 80 1018.6
20260506081035 56 0 1.0 8.0 0.00 0.03 0.00 80 1018.6
20260506080532 56 310 2.0 4.0 0.00 0.03 0.00 80 1018.6
20260506073529 55 0 1.0 3.0 0.00 0.09 0.00 81 1018.3
20260506073046 55 0 0.0 3.0 0.00 0.09 0.00 81 1018.3
20260506072529 55 242 0.0 3.0 0.00 0.09 0.00 81 1018.2
20260506072034 55 242 0.0 3.0 0.00 0.09 0.00 81 1018.3
20260506071548 55 0 0.0 3.0 0.00 0.09 0.00 81 1018.2
20260506071033 55 242 1.0 5.0 0.00 0.09 0.00 81 1018.1
20260506070531 55 0 0.0 8.0 0.00 0.09 0.00 80 1018.2
20260506062033 56 239 3.0 9.0 0.00 0.12 0.09 80 1017.9
20260506061542 56 250 4.0 9.0 0.00 0.12 0.09 79 1017.8
20260506061036 56 238 3.0 7.0 0.00 0.12 0.09 79 1017.7
20260506060532 56 242 2.0 8.0 0.00 0.12 0.09 79 1017.8
20260506051033 57 215 4.0 8.0 0.00 0.15 0.09 77 1017.2
20260506050532 57 248 3.0 9.0 0.00 0.15 0.09 77 1017.1
20260506045030 57 229 1.0 9.0 0.00 0.21 0.09 76 1017.1
20260506044540 57 252 1.0 7.0 0.00 0.21 0.09 76 1017.1
20260506044029 57 182 2.0 7.0 0.00 0.21 0.09 76 1017.0
20260506043532 58 244 2.0 12.0 0.00 0.21 0.09 77 1016.9
20260506043047 58 180 3.0 12.0 0.00 0.21 0.09 76 1016.8
20260506042531 58 219 3.0 10.0 0.00 0.21 0.09 76 1016.8
20260506042032 58 217 1.0 9.0 0.00 0.21 0.09 76 1016.9
20260506041542 58 235 2.0 9.0 0.00 0.21 0.09 76 1016.6
20260506041028 58 204 1.0 7.0 0.00 0.21 0.09 76 1016.6
20260506040530 58 259 2.0 9.0 0.00 0.21 0.09 76 1016.6
20260506040046 59 175 1.0 9.0 0.00 0.21 0.09 75 1016.5
20260506035532 59 211 2.0 8.0 0.00 0.21 0.09 75 1016.5
20260506035031 59 201 2.0 10.0 0.00 0.21 0.09 75 1016.4
20260506034549 59 228 3.0 10.0 0.00 0.21 0.09 74 1016.4
20260506034031 59 192 2.0 9.0 0.00 0.21 0.09 74 1016.3
20260506033531 59 254 2.0 9.0 0.00 0.21 0.09 74 1016.3
20260506033042 59 221 3.0 9.0 0.00 0.21 0.09 74 1016.1
20260506032531 59 223 3.0 9.0 0.00 0.21 0.09 73 1016.0
20260506032031 59 227 3.0 9.0 0.00 0.21 0.09 73 1015.9
20260506031548 59 208 2.0 8.0 0.00 0.21 0.09 73 1015.8
20260506031030 59 202 3.0 8.0 0.00 0.21 0.09 73 1015.8
20260506030528 59 214 3.0 11.0 0.00 0.21 0.09 73 1015.7
20260506030044 60 254 3.0 11.0 0.00 0.21 0.09 73 1015.7
20260506025530 60 184 2.0 8.0 0.00 0.21 0.09 73 1015.7
20260506025033 60 177 1.0 8.0 0.00 0.21 0.09 73 1015.7
20260506024548 60 160 1.0 9.0 0.00 0.21 0.09 73 1015.5
20260506024029 60 218 4.0 9.0 0.00 0.21 0.09 73 1015.6
20260506023531 60 212 4.0 9.0 0.00 0.21 0.09 73 1015.5
20260506023054 61 201 1.0 7.0 0.00 0.21 0.09 73 1015.6
20260506022532 61 242 2.0 9.0 0.00 0.21 0.09 73 1015.4
20260506022031 61 240 3.0 9.0 0.00 0.21 0.09 72 1015.4
20260506021547 61 244 4.0 9.0 0.00 0.21 0.09 72 1015.4
20260506021032 61 194 3.0 8.0 0.00 0.21 0.09 72 1015.3
20260506020531 62 254 2.0 7.0 0.00 0.21 0.09 72 1015.3
20260506020047 62 214 2.0 7.0 0.00 0.21 0.09 72 1015.3
20260506015532 62 199 3.0 7.0 0.00 0.21 0.09 72 1015.3
20260506015034 62 211 3.0 7.0 0.00 0.21 0.09 71 1015.3
20260506014545 62 208 2.0 7.0 0.00 0.21 0.09 72 1015.3
20260506014030 63 224 2.0 8.0 0.00 0.21 0.09 71 1015.2
20260506013529 63 161 3.0 8.0 0.00 0.21 0.09 71 1015.2
20260506013043 63 205 2.0 8.0 0.00 0.21 0.09 71 1015.1
20260506012531 63 211 3.0 9.0 0.00 0.21 0.09 70 1015.1
20260506012030 64 263 2.0 9.0 0.00 0.21 0.09 71 1015.1
20260506011538 64 224 3.0 6.0 0.00 0.21 0.09 71 1015.0
20260506011030 64 205 2.0 7.0 0.00 0.21 0.09 70 1015.1
20260506010529 64 284 3.0 8.0 0.00 0.21 0.09 70 1015.1
20260506010048 64 256 3.0 8.0 0.00 0.21 0.09 70 1015.0
20260506005528 65 228 2.0 10.0 0.00 0.21 0.09 69 1015.0
20260506005028 65 177 3.0 10.0 0.00 0.21 0.09 67 1015.0
20260506004548 65 164 3.0 8.0 0.00 0.21 0.09 68 1014.9
20260506004028 65 201 2.0 8.0 0.00 0.21 0.09 68 1014.9
20260506003529 65 195 4.0 8.0 0.00 0.21 0.09 68 1015.0
20260506003045 64 205 2.0 11.0 0.00 0.21 0.09 69 1014.9
20260506002528 64 240 3.0 11.0 0.00 0.21 0.09 68 1014.9
20260506002030 64 199 3.0 8.0 0.00 0.21 0.09 68 1014.9
20260506001546 65 184 3.0 9.0 0.00 0.21 0.09 68 1014.9
20260506001029 65 186 4.0 9.0 0.00 0.21 0.09 68 1014.9
20260506000531 65 261 2.0 9.0 0.00 0.21 0.09 68 1014.7
20260506000042 65 202 3.0 9.0 0.00 0.21 0.09 67 1014.8
20260505235528 66 265 4.0 8.0 0.00 0.21 0.09 65 1014.8
20260505235029 67 215 2.0 9.0 0.00 0.21 0.09 66 1014.8
20260505234601 65 207 4.0 9.0 0.00 0.21 0.09 67 1014.9
20260505234035 65 180 3.0 8.0 0.00 0.21 0.09 67 1014.8
20260505233531 66 223 1.0 9.0 0.00 0.21 0.09 68 1014.9
20260505233044 65 186 1.0 9.0 0.00 0.21 0.09 70 1014.9
20260505232534 64 198 3.0 9.0 0.00 0.21 0.09 71 1014.9
20260505232036 63 211 3.0 9.0 0.00 0.21 0.09 70 1015.0
20260505231545 64 204 3.0 8.0 0.00 0.21 0.09 70 1015.0
20260505231033 64 186 3.0 6.0 0.00 0.21 0.09 70 1015.1
20260505230530 64 256 2.0 6.0 0.00 0.21 0.09 70 1015.0
20260505230043 64 180 1.0 7.0 0.00 0.21 0.09 72 1015.1
20260505225534 63 199 2.0 7.0 0.00 0.21 0.09 71 1015.1
20260505225035 63 192 2.0 8.0 0.00 0.21 0.09 70 1015.1
20260505224542 64 210 2.0 8.0 0.00 0.21 0.09 70 1015.1
20260505224035 64 219 2.0 8.0 0.00 0.21 0.09 70 1015.2
20260505223530 64 204 1.0 7.0 0.00 0.21 0.09 70 1015.0
20260505223047 64 242 2.0 7.0 0.00 0.21 0.09 70 1015.1
20260505222535 64 0 1.0 7.0 0.00 0.21 0.09 70 1015.1
20260505222032 64 0 0.0 7.0 0.00 0.21 0.09 71 1015.1
20260505221545 64 191 2.0 8.0 0.00 0.21 0.09 70 1015.2
20260505221032 64 196 2.0 8.0 0.00 0.21 0.09 70 1015.3
20260505220530 65 222 1.0 7.0 0.00 0.21 0.09 69 1015.3
20260505220045 65 202 3.0 7.0 0.00 0.21 0.09 69 1015.2
20260505215534 65 214 2.0 7.0 0.00 0.21 0.09 69 1015.3
20260505215033 65 198 2.0 7.0 0.00 0.21 0.09 69 1015.2
20260505214601 65 207 1.0 7.0 0.00 0.21 0.09 71 1015.3
20260505214030 64 204 3.0 7.0 0.00 0.21 0.09 69 1015.3
20260505213537 64 248 2.0 7.0 0.00 0.21 0.09 70 1015.4
20260505213057 63 240 2.0 5.0 0.00 0.21 0.09 71 1015.4
20260505212532 63 0 1.0 5.0 0.00 0.21 0.09 72 1015.5
20260505212031 63 235 2.0 5.0 0.00 0.21 0.09 72 1015.5
20260505211546 63 238 2.0 5.0 0.00 0.21 0.09 72 1015.4
20260505211033 63 0 1.0 5.0 0.00 0.21 0.09 72 1015.4
20260505210533 63 226 1.0 5.0 0.00 0.21 0.09 71 1015.5
20260505210050 63 0 1.0 8.0 0.00 0.21 0.09 72 1015.5
20260505205531 63 232 1.0 8.0 0.00 0.21 0.09 72 1015.5
20260505205030 63 283 2.0 8.0 0.00 0.21 0.09 71 1015.5
20260505204554 62 194 1.0 7.0 0.00 0.21 0.09 72 1015.5
20260505204031 62 246 3.0 7.0 0.00 0.21 0.09 73 1015.5
20260505203533 62 220 3.0 7.0 0.00 0.21 0.09 71 1015.6
20260505203049 62 191 2.0 7.0 0.00 0.21 0.09 73 1015.6
20260505202530 62 192 3.0 7.0 0.00 0.21 0.09 73 1015.6
20260505202033 62 256 2.0 7.0 0.00 0.21 0.09 74 1015.6
20260505201550 62 245 2.0 7.0 0.00 0.21 0.09 74 1015.6
20260505201033 62 240 3.0 7.0 0.00 0.21 0.09 75 1015.7
20260505200531 61 209 1.0 6.0 0.00 0.21 0.09 75 1015.6
20260505200058 61 205 2.0 6.0 0.00 0.21 0.09 75 1015.7
20260505195530 61 221 2.0 7.0 0.00 0.21 0.09 74 1015.8
20260505195037 61 215 2.0 7.0 0.00 0.21 0.09 74 1015.7
20260505194547 61 237 2.0 7.0 0.00 0.21 0.09 74 1015.8
20260505194031 62 211 2.0 7.0 0.00 0.21 0.09 73 1015.8
20260505193534 62 279 2.0 6.0 0.00 0.21 0.09 74 1015.7
20260505193051 62 193 2.0 8.0 0.00 0.21 0.09 73 1015.7
20260505192533 62 205 4.0 8.0 0.00 0.21 0.09 72 1015.7
20260505192030 62 214 3.0 8.0 0.00 0.21 0.09 73 1015.7
20260505191547 62 232 3.0 8.0 0.00 0.21 0.09 73 1015.6
20260505191029 62 246 2.0 9.0 0.00 0.21 0.09 75 1015.7
20260505190533 61 269 3.0 9.0 0.00 0.21 0.09 75 1015.6
20260505190045 61 263 3.0 9.0 0.00 0.21 0.09 74 1015.7
20260505185534 61 207 3.0 9.0 0.00 0.21 0.09 74 1015.7
20260505185034 61 286 3.0 10.0 0.00 0.21 0.09 74 1015.7
20260505184545 61 290 4.0 13.0 0.00 0.21 0.09 74 1015.7
20260505184034 60 294 4.0 13.0 0.00 0.21 0.09 75 1015.6
20260505183531 60 256 3.0 9.0 0.00 0.21 0.09 78 1015.6
20260505183054 60 233 3.0 9.0 0.00 0.21 0.09 78 1015.6
20260505182533 60 230 3.0 10.0 0.00 0.21 0.09 78 1015.6
20260505182033 59 252 4.0 10.0 0.00 0.21 0.09 78 1015.6
20260505181550 60 200 3.0 9.0 0.00 0.21 0.09 78 1015.6
20260505181037 59 242 4.0 9.0 0.00 0.21 0.09 78 1015.5
20260505180533 59 226 4.0 11.0 0.00 0.21 0.09 78 1015.5
20260505180106 59 273 4.0 11.0 0.00 0.21 0.09 79 1015.6
20260505175534 59 211 3.0 9.0 0.00 0.21 0.09 80 1015.5
20260505175034 59 246 3.0 8.0 0.00 0.21 0.09 81 1015.5
20260505174601 58 239 2.0 9.0 0.00 0.21 0.09 82 1015.3
20260505174034 58 250 3.0 9.0 0.00 0.21 0.09 82 1015.3
20260505173533 58 228 2.0 9.0 0.00 0.21 0.09 84 1015.2
20260505173047 57 223 3.0 6.0 0.00 0.21 0.09 84 1015.3
20260505172624 57 252 3.0 8.0 0.00 0.21 0.09 84 1015.3
20260505172035 57 207 3.0 8.0 0.00 0.21 0.09 85 1015.1
20260505171543 57 232 3.0 8.0 0.00 0.21 0.09 85 1015.2
20260505171031 56 241 3.0 7.0 0.00 0.21 0.09 85 1015.2
20260505170531 56 248 2.0 8.0 0.00 0.21 0.09 86 1015.2
20260505170042 56 242 3.0 8.0 0.00 0.21 0.09 86 1015.3
20260505165534 56 262 2.0 8.0 0.00 0.21 0.09 86 1015.3